Regional Weather Roundup
Issued by NWS

Home | Current Version | Previous Version | Graphics & Text | Print | Product List | Glossary On
Versions: 1 2 3 4 5 6 7 8 9 10 11 12 13 14 15 16 17 18 19 20 21 22 23 24 25 26 27 28 29 30 31 32 33 34 35 36 37 38 39 40 41 42 43 44 45 46 47 48 49 50
000
ASUS43 KDTX 292210
RWRMI
MICHIGAN HOURLY REGIONAL WEATHER ROUNDUP
NATIONAL WEATHER SERVICE DETROIT/PONTIAC MI
600 PM EDT FRI JUL 29 2016

NOTE: "FAIR" INDICATES FEW OR NO CLOUDS BELOW 12,000 FEET WITH NO
SIGNIFICANT WEATHER AND/OR OBSTRUCTION TO VISIBILITY.

MIZ047>049-052>055-059>063-066>070-074>076-081>083-292300-
SOUTHEAST LOWER MICHIGAN

CITY           SKY/WX    TMP DP  RH WIND       PRES   REMARKS
ADRIAN         CLOUDY    78  67  68 E12       29.94R
ALMA           CLOUDY    73  61  66 NE15      30.01S
ANN ARBOR      CLOUDY    77  66  68 NE6       29.95R
BAD AXE        MOSUNNY   72  55  55 NE12G18   30.03S
CARO           CLOUDY    74  57  55 NE6       30.00S
DETROIT CITY   CLOUDY    75  70  84 E8        29.95S
DETROIT        CLOUDY    78  64  61 NE10      29.95R
FLINT          CLOUDY    81  55  40 NE14      29.98R
GROSSE ILE     CLOUDY    75  67  75 E7        29.94R
HILLSDALE      CLOUDY    77  67  71 N5        29.95S
HOWELL         PTSUNNY   78  56  46 NE8G16    29.97R

CITY           SKY/WX    TMP DP  RH WIND       PRES   REMARKS
JACKSON        CLOUDY    78  68  71 N7        29.95R
LAMBERTVILLE   CLOUDY    74  69  87 E6        29.94S
LANSING        CLOUDY    77  58  51 NE13      29.98R
LAPEER         FAIR      75  53  45 NE5G17    29.99S
MASON          CLOUDY    78  60  54 NE8       29.96S
MONROE         RAIN      73  69  86 NE6       29.94R
MT. CLEMENS    PTSUNNY   77  63  62 NE12      29.93S
PONTIAC        CLOUDY    78  57  48 NE14      29.95S
PORT HOPE        N/A     71  61  70 NE18      30.01F
PORT HURON     MOSUNNY   73  59  60 N7        29.98R
TRI CITIES     CLOUDY    72  61  68 NE15      30.02R
MIDLAND        FAIR      73  58  58 NE12G17   30.01S
TROY           CLOUDY    79  63  58 E12       29.97R
SAGINAW HB     CLOUDY    72  59  64 NE16G22   30.00S
$$
MIZ043>046-050>051-056>058-064>065-071>073-077>080-292300-
SOUTHWEST LOWER MICHIGAN

CITY           SKY/WX    TMP DP  RH WIND       PRES   REMARKS
BATTLE CREEK   CLOUDY    74  66  76 NE9       29.96S
BENTON HARBOR  CLOUDY    76  66  71 E8        29.93R
BIG RAPIDS     CLOUDY    75  59  55 E8        30.00S
COLDWATER      PTSUNNY   76  69  80 NE7       29.94F
FREMONT        FAIR      76  63  62 E9        29.98S
HOLLAND        CLOUDY    76  62  62 E13G18    29.96R
GRAND RAPIDS   PTSUNNY   75  64  68 E13       29.98S
IONIA          FAIR      73  61  64 E13G20    29.98S
KALAMAZOO      CLOUDY    76  65  68 VRB5      29.95S
LUDINGTON      CLOUDY    77  62  59 E8        29.97S
MARSHALL       CLOUDY    76  66  70 CALM      29.95S
MOUNT PLEASANT CLOUDY    76  55  49 E10G17    30.01R
MUSKEGON       CLOUDY    76  65  68 E8        29.97S
SOUTH HAVEN    CLOUDY    77  67  70 E7        29.94R
$$
MIZ016>042-292300-
NORTHERN LOWER MICHIGAN

CITY           SKY/WX    TMP DP  RH WIND       PRES   REMARKS
ALPENA         SUNNY     75  53  46 E8        30.05F
BEAVER ISLAND  SUNNY     75  53  46 E9G17     30.05S
BELLAIRE       SUNNY     79  53  39 N10G21    30.00R
CADILLAC       CLOUDY    76  58  53 E5        30.02R
CHARLEVOIX     SUNNY     78  49  37 NE14      30.05S
FRANKFORT      SUNNY     77  57  49 N6        30.00R
GAYLORD        MOSUNNY   77  49  37 NE14      30.04S
GRAYLING       PTSUNNY   81  53  37 E10       30.02S
HARBOR SPRINGS SUNNY     76  50  39 E13       30.04S
HOUGHTON LAKE  MOSUNNY   77  57  50 E10       30.02S
MANISTEE       MOSUNNY   80  59  48 VRB6      29.98S
OSCODA         MOSUNNY   72  54  54 NE14      30.04S
PELLSTON       SUNNY     77  47  34 E13       30.05F
ROGERS CITY    SUNNY     73  52  47 N3        30.06F
TRAVERSE CITY  MOSUNNY   79  57  46 N9        29.98S
$$
MIZ007>008-015-292300-
EASTERN UPPER MICHIGAN

CITY           SKY/WX    TMP DP  RH WIND       PRES   REMARKS
KINROSS        CLOUDY    75  55  49 N12       30.06S
MACKINAC ISLAN SUNNY     73  51  45 SE7       30.05F
NEWBERRY       PTSUNNY   77  46  33 VRB3      30.05F
S. S. MARIE    SUNNY     75  54  47 NW8       30.05F
MUNISING         N/A     72  58  61 NE16      30.06F
$$
MIZ004>006-011>014-085-292300-
CENTRAL UPPER MICHIGAN

CITY           SKY/WX    TMP DP  RH WIND       PRES   REMARKS
MANISTIQUE     SUNNY     73  55  52 E9        30.04F
ESCANABA       SUNNY     73  57  56 SE10      30.03S
MENOMINEE      SUNNY    N/A N/A N/A NE12      30.04S
SAWYER-GWINN   SUNNY     72  48  43 NE16      30.08F
$$
MIZ001>003-009>011-084-292300-
WESTERN UPPER MICHIGAN

CITY           SKY/WX    TMP DP  RH WIND       PRES   REMARKS
IRON MOUNTAIN  MOSUNNY   75  52  44 E3        30.03F
HOUGHTON       SUNNY     72  51  47 E10       30.09S
COPPER HARBOR    N/A     74  48  39 S6        30.08S
IRONWOOD       SUNNY     72  55  56 N12       30.05S
$$

ABBREVIATIONS USED IN REMARKS
   TC - TEMPERATURE IN CELSIUS
  WCI - WIND CHILL INDEX
   HX - HEAT INDEX
  VSB - VISIBILITY





USA.gov is the U.S. government's official web portal to all federal, state and local government web resources and services.